CW1734 Weather Reports


time (UTC)temp
C
wind
direction
speed
KPH
gust
KPH
rain 1hr
cm
rain 24hr
cm
rain mn
cm
humidity
%
barometer
mb
20260510153405 12 39 19.3 32.2 0.00 0.18 0.18 77 1013.5
20260510152905 12 42 19.3 40.2 0.00 0.18 0.18 77 1013.6
20260510152404 12 44 16.1 35.4 0.00 0.18 0.18 78 1013.6
20260510151904 12 42 19.3 38.6 0.00 0.18 0.18 78 1014.1
20260510151405 12 51 19.3 35.4 0.00 0.18 0.18 78 1014.1
20260510150905 12 19 19.3 35.4 0.00 0.18 0.18 78 1014.1
20260510150405 12 29 19.3 33.8 0.00 0.18 0.18 78 1014.1
20260510145905 12 26 16.1 32.2 0.00 0.18 0.18 79 1014.1
20260510144905 12 44 19.3 33.8 0.00 0.18 0.18 79 1014.1
20260510144404 12 38 14.5 29.0 0.00 0.18 0.18 80 1014.1
20260510143904 12 29 16.1 29.0 0.00 0.18 0.18 80 1014.1
20260510143405 12 30 12.9 25.7 0.00 0.18 0.18 80 1014.3
20260510142904 12 40 19.3 27.4 0.00 0.18 0.18 80 1014.3
20260510142405 12 34 17.7 32.2 0.00 0.18 0.18 80 1014.3
20260510141904 12 354 14.5 24.1 0.00 0.18 0.18 81 1014.3
20260510140906 12 26 12.9 20.9 0.00 0.18 0.18 82 1014.3
20260510135904 12 35 12.9 27.4 0.00 0.18 0.18 83 1014.3
20260510135404 12 32 16.1 25.7 0.00 0.18 0.18 83 1014.3
20260510134905 12 30 16.1 22.5 0.00 0.18 0.18 84 1014.3
20260510134404 11 58 14.5 29.0 0.00 0.18 0.18 85 1014.3
20260510133405 11 41 14.5 20.9 0.00 0.18 0.18 86 1014.3
20260510132905 11 46 11.3 22.5 0.00 0.18 0.18 86 1014.4
20260510132405 11 39 9.7 19.3 0.03 0.18 0.18 87 1014.4
20260510131405 11 34 9.7 19.3 0.03 0.18 0.18 87 1014.4
20260510130904 11 46 8.0 19.3 0.03 0.18 0.18 87 1015.0
20260510130405 11 60 11.3 19.3 0.05 0.18 0.18 87 1015.0
20260510125905 11 37 16.1 25.7 0.05 0.18 0.18 87 1015.0
20260510125405 11 41 16.1 29.0 0.05 0.18 0.18 87 1015.0
20260510124904 11 43 9.7 20.9 0.05 0.18 0.18 87 1015.0
20260510124404 11 21 9.7 22.5 0.08 0.18 0.18 87 1015.0
20260510123905 11 29 11.3 24.1 0.08 0.18 0.18 88 1015.0
20260510123404 10 32 16.1 24.1 0.08 0.18 0.18 87 1015.0
20260510122904 11 23 12.9 24.1 0.10 0.18 0.18 88 1015.0
20260510122404 11 11 11.3 20.9 0.10 0.15 0.15 88 1015.0
20260510121904 10 27 11.3 19.3 0.13 0.15 0.15 88 1015.0
20260510120904 10 24 11.3 20.9 0.15 0.15 0.15 87 1015.7
20260510120404 11 25 11.3 20.9 0.13 0.15 0.15 87 1015.7
20260510115904 11 340 11.3 24.1 0.13 0.15 0.15 86 1015.7
20260510115404 11 30 8.0 19.3 0.13 0.13 0.13 86 1015.7
20260510114905 11 36 9.7 20.9 0.13 0.13 0.13 86 1015.7
20260510114404 11 16 8.0 12.9 0.10 0.10 0.10 86 1015.7
20260510113904 11 26 9.7 16.1 0.10 0.10 0.10 85 1015.7
20260510113405 11 36 11.3 19.3 0.10 0.10 0.10 84 1015.7
20260510112904 11 45 11.3 24.1 0.08 0.08 0.08 83 1015.7
20260510112404 11 39 11.3 22.5 0.05 0.05 0.05 83 1015.7
20260510111905 11 33 11.3 22.5 0.05 0.05 0.05 82 1015.7
20260510111405 11 54 11.3 22.5 0.05 0.05 0.05 82 1015.7
20260510110904 11 66 9.7 22.5 0.03 0.03 0.03 81 1015.7
20260510110404 11 37 6.4 24.1 0.03 0.03 0.03 81 1015.7
20260510105904 11 46 16.1 32.2 0.03 0.03 0.03 79 1015.7
20260510105405 11 34 11.3 20.9 0.00 0.00 0.00 79 1015.7
20260510104904 11 47 14.5 27.4 0.00 0.00 0.00 78 1015.7
20260510104405 11 42 11.3 32.2 0.00 0.00 0.00 78 1015.7
20260510103404 11 40 12.9 29.0 0.00 0.00 0.00 78 1015.7
20260510102904 11 36 14.5 24.1 0.00 0.00 0.00 78 1015.7
20260510102404 11 38 14.5 32.2 0.00 0.00 0.00 78 1015.7
20260510100905 11 24 16.1 25.7 0.00 0.00 0.00 77 1015.7
20260510100404 12 26 12.9 22.5 0.00 0.00 0.00 77 1015.7
20260510095905 12 38 16.1 27.4 0.00 0.00 0.00 75 1015.7
20260510095404 12 31 14.5 22.5 0.00 0.00 0.00 74 1015.7
20260510093904 12 39 14.5 22.5 0.00 0.00 0.00 73 1015.7
20260510093405 12 38 16.1 22.5 0.00 0.00 0.00 72 1015.7
20260510092905 12 35 17.7 25.7 0.00 0.00 0.00 73 1015.7
20260510092404 12 43 14.5 27.4 0.00 0.00 0.00 73 1015.7
20260510091904 12 30 14.5 27.4 0.00 0.00 0.00 74 1015.6
20260510091405 12 29 16.1 25.7 0.00 0.00 0.00 73 1015.7
20260510090904 12 29 14.5 32.2 0.00 0.00 0.00 74 1015.7
20260510085904 12 28 11.3 24.1 0.00 0.00 0.00 74 1015.7
20260510085404 12 17 9.7 20.9 0.00 0.00 0.00 74 1015.7
20260510084904 12 29 14.5 24.1 0.00 0.00 0.00 74 1015.7
20260510084405 12 30 16.1 25.7 0.00 0.00 0.00 74 1015.7
20260510083904 11 26 19.3 27.4 0.00 0.00 0.00 74 1015.7
20260510083404 11 29 12.9 24.1 0.00 0.00 0.00 75 1015.7
20260510082404 11 18 17.7 35.4 0.00 0.00 0.00 75 1015.7
20260510081904 11 12 16.1 25.7 0.00 0.00 0.00 75 1015.7
20260510080904 11 32 14.5 24.1 0.00 0.00 0.00 75 1015.7
20260510080404 11 28 11.3 22.5 0.00 0.00 0.00 76 1015.7
20260510075905 11 28 12.9 22.5 0.00 0.00 0.00 76 1015.7
20260510075405 11 32 12.9 33.8 0.00 0.00 0.00 76 1015.7
20260510074904 11 38 16.1 25.7 0.00 0.00 0.00 76 1015.7
20260510074404 11 36 14.5 22.5 0.00 0.00 0.00 76 1015.7
20260510073904 11 30 14.5 27.4 0.00 0.00 0.00 76 1015.6
20260510073405 11 27 9.7 20.9 0.00 0.00 0.00 76 1015.6
20260510072904 11 23 14.5 24.1 0.00 0.00 0.00 76 1015.6
20260510072404 11 32 11.3 19.3 0.00 0.00 0.00 77 1015.7
20260510071905 11 26 14.5 24.1 0.00 0.00 0.00 77 1015.7
20260510071405 11 40 11.3 22.5 0.00 0.00 0.00 77 1015.6
20260510070905 11 19 14.5 25.7 0.00 0.00 0.00 77 1015.6
20260510070404 11 29 11.3 20.9 0.00 0.00 0.00 77 1015.6
20260510065404 11 43 19.3 33.8 0.00 0.00 0.00 77 1015.6
20260510064904 11 35 14.5 25.7 0.00 0.00 0.00 77 1015.6
20260510064404 11 27 14.5 25.7 0.00 0.00 0.00 78 1015.6
20260510063904 11 36 16.1 25.7 0.00 0.00 0.00 78 1015.6
20260510063404 11 21 16.1 29.0 0.00 0.00 0.00 78 1015.6
20260510062904 11 32 11.3 29.0 0.00 0.00 0.00 78 1015.6
20260510061404 10 26 14.5 20.9 0.00 0.00 0.00 79 1015.6
20260510060404 10 36 14.5 22.5 0.00 0.00 0.00 79 1015.6
20260510055904 10 29 16.1 25.7 0.00 0.00 0.00 79 1015.6
20260510054905 10 22 11.3 20.9 0.00 0.00 0.00 79 1015.6
20260510053904 10 33 12.9 25.7 0.00 0.00 0.00 79 1015.6
20260510053404 10 23 12.9 19.3 0.00 0.00 0.00 79 1015.6
20260510052905 10 31 9.7 22.5 0.00 0.00 0.00 79 1015.6
20260510052405 10 28 16.1 24.1 0.00 0.00 0.00 79 1015.6
20260510051905 10 21 11.3 22.5 0.00 0.00 0.00 79 1015.6
20260510051404 10 28 16.1 25.7 0.00 0.00 0.00 79 1015.6
20260510050904 10 33 22.5 24.1 0.00 0.00 0.00 80 1015.6
20260510050404 10 29 12.9 20.9 0.00 0.00 0.00 79 1015.5
20260510045904 10 23 14.5 25.7 0.00 0.00 0.00 79 1015.5
20260510045404 10 16 14.5 25.7 0.00 0.00 0.00 79 1015.5
20260510044904 10 25 14.5 24.1 0.00 0.00 0.00 79 1015.5
20260510044404 10 36 16.1 27.4 0.00 0.00 0.00 79 1015.5
20260510043905 10 24 12.9 25.7 0.00 0.00 0.00 78 1015.5
20260510043404 10 27 11.3 22.5 0.00 0.00 0.00 77 1015.5
20260510042904 11 22 14.5 24.1 0.00 0.00 0.00 77 1015.6
20260510041904 11 23 12.9 22.5 0.00 0.00 0.00 75 1015.6
20260510041404 11 21 11.3 24.1 0.00 0.00 0.00 74 1015.6
20260510040904 11 26 14.5 24.1 0.00 0.00 0.00 74 1015.6
20260510040406 11 36 12.9 19.3 0.00 0.00 0.00 73 1015.6
20260510035904 11 23 11.3 22.5 0.00 0.00 0.00 72 1015.6
20260510035404 11 26 9.7 20.9 0.00 0.00 0.00 72 1015.6
20260510034904 11 21 14.5 25.7 0.00 0.00 0.00 71 1015.7
20260510034404 11 31 12.9 24.1 0.00 0.00 0.00 70 1015.7
20260510033404 11 36 9.7 25.7 0.00 0.00 0.00 69 1015.8
20260510032904 11 30 11.3 19.3 0.00 0.00 0.00 69 1015.8
20260510032404 11 29 11.3 20.9 0.00 0.00 0.00 69 1015.8
20260510031904 12 29 12.9 24.1 0.00 0.00 0.00 68 1015.8
20260510030904 12 26 16.1 24.1 0.00 0.00 0.00 68 1015.8
20260510030404 12 28 16.1 24.1 0.00 0.00 0.00 68 1015.8
20260510025904 12 23 16.1 27.4 0.00 0.00 0.00 67 1015.8
20260510025405 12 30 12.9 24.1 0.00 0.00 0.00 67 1015.8
20260510024904 12 31 9.7 20.9 0.00 0.00 0.00 66 1015.8
20260510024404 12 31 12.9 27.4 0.00 0.00 0.00 66 1015.8
20260510023904 12 45 8.0 19.3 0.00 0.00 0.00 66 1015.6
20260510023405 12 34 11.3 25.7 0.00 0.00 0.00 65 1015.6
20260510022904 12 46 14.5 25.7 0.00 0.00 0.00 64 1015.7
20260510022404 12 44 12.9 29.0 0.00 0.00 0.00 64 1015.6
20260510021904 12 40 11.3 20.9 0.00 0.00 0.00 63 1015.7
20260510021404 12 35 11.3 24.1 0.00 0.00 0.00 63 1015.7
20260510020904 12 37 9.7 24.1 0.00 0.00 0.00 63 1015.8
20260510020404 12 28 11.3 24.1 0.00 0.00 0.00 62 1015.8
20260510015906 12 41 11.3 19.3 0.00 0.00 0.00 62 1015.8
20260510014904 12 37 14.5 22.5 0.00 0.00 0.00 61 1015.9
20260510014404 12 32 14.5 22.5 0.00 0.00 0.00 61 1015.9
20260510013904 12 41 9.7 19.3 0.00 0.00 0.00 62 1015.9
20260510013404 12 42 9.7 19.3 0.00 0.00 0.00 62 1015.7
20260510012904 12 46 11.3 22.5 0.00 0.00 0.00 61 1015.7
20260510012404 12 45 9.7 24.1 0.00 0.00 0.00 61 1015.7
20260510011905 12 37 8.0 19.3 0.00 0.00 0.00 61 1015.7
20260510011404 12 39 11.3 27.4 0.00 0.00 0.00 61 1015.9
20260510010904 12 39 11.3 27.4 0.00 0.00 0.00 60 1015.9
20260510010404 12 43 11.3 20.9 0.00 0.00 0.00 61 1015.9
20260510005904 12 43 8.0 20.9 0.00 0.00 0.00 60 1015.9
20260510004904 13 46 9.7 19.3 0.00 0.00 0.00 60 1016.0
20260510004405 13 39 9.7 22.5 0.00 0.00 0.00 60 1016.0
20260510003905 13 43 9.7 20.9 0.00 0.00 0.00 60 1016.0
20260510003405 13 42 8.0 16.1 0.00 0.00 0.00 60 1016.0
20260510002904 13 52 9.7 19.3 0.00 0.00 0.00 60 1016.0
20260510002404 13 46 9.7 16.1 0.00 0.00 0.00 59 1016.0
20260510001904 13 51 6.4 19.3 0.00 0.00 0.00 59 1015.9
20260510000904 13 51 8.0 19.3 0.00 0.00 0.00 58 1015.8
20260510000404 13 45 9.7 19.3 0.00 0.00 0.00 58 1015.8
20260509235904 13 56 8.0 12.9 0.00 0.00 0.00 58 1015.8
20260509235404 13 67 8.0 19.3 0.00 0.00 0.00 57 1015.8
20260509234904 13 58 8.0 20.9 0.00 0.00 0.00 56 1015.8
20260509234404 13 46 9.7 19.3 0.00 0.00 0.00 56 1015.6
20260509233904 13 47 9.7 19.3 0.00 0.00 0.00 56 1015.6
20260509233405 13 56 8.0 19.3 0.00 0.00 0.00 55 1015.6
20260509232904 13 53 8.0 16.1 0.00 0.00 0.00 55 1015.6
20260509232404 13 51 8.0 20.9 0.00 0.00 0.00 54 1015.6
20260509231404 13 46 6.4 19.3 0.00 0.00 0.00 54 1015.6
20260509230905 13 39 9.7 14.5 0.00 0.00 0.00 54 1015.6
20260509230404 13 58 8.0 19.3 0.00 0.00 0.00 53 1015.6
20260509225904 13 72 9.7 24.1 0.00 0.00 0.00 52 1015.6
20260509225404 13 61 9.7 20.9 0.00 0.00 0.00 52 1015.6
20260509224904 13 62 8.0 19.3 0.00 0.00 0.00 52 1015.6
20260509224405 14 56 12.9 24.1 0.00 0.00 0.00 52 1015.6
20260509223905 14 63 11.3 22.5 0.00 0.00 0.00 52 1015.6
20260509223405 14 56 8.0 19.3 0.00 0.00 0.00 53 1015.5
20260509222904 14 40 11.3 20.9 0.00 0.00 0.00 52 1015.7
20260509221904 14 64 9.7 22.5 0.00 0.00 0.00 52 1015.7
20260509220904 14 61 9.7 22.5 0.00 0.00 0.00 53 1015.7
20260509220404 14 70 9.7 22.5 0.00 0.00 0.00 53 1015.7
20260509215904 14 51 8.0 19.3 0.00 0.00 0.00 53 1015.6
20260509215404 14 52 8.0 12.9 0.00 0.00 0.00 54 1015.6
20260509214905 14 66 11.3 20.9 0.00 0.00 0.00 56 1015.6
20260509214404 14 49 8.0 19.3 0.00 0.00 0.00 55 1015.5
20260509213904 14 47 6.4 12.9 0.00 0.00 0.00 54 1015.5
20260509213405 14 46 8.0 14.5 0.00 0.00 0.00 54 1015.5
20260509212904 14 51 9.7 19.3 0.00 0.00 0.00 52 1015.5
20260509212404 14 47 8.0 19.3 0.00 0.00 0.00 51 1015.2
20260509211904 15 46 8.0 16.1 0.00 0.00 0.00 52 1015.2
20260509210904 15 33 9.7 19.3 0.00 0.00 0.00 51 1015.2
20260509210404 15 45 8.0 19.3 0.00 0.00 0.00 51 1015.2
20260509205904 15 52 8.0 20.9 0.00 0.00 0.00 51 1015.2
20260509205404 15 32 11.3 19.3 0.00 0.00 0.00 53 1015.2
20260509204904 15 32 9.7 20.9 0.00 0.00 0.00 54 1015.2
20260509203904 15 39 8.0 19.3 0.00 0.00 0.00 53 1015.2
20260509203404 15 71 8.0 20.9 0.00 0.00 0.00 54 1015.2
20260509202905 15 49 11.3 19.3 0.00 0.00 0.00 56 1014.5
20260509202404 15 38 8.0 19.3 0.00 0.00 0.00 58 1014.5
20260509201904 16 40 8.0 19.3 0.00 0.00 0.00 58 1014.5
20260509201405 16 50 9.7 19.3 0.00 0.00 0.00 57 1014.5
20260509200904 16 47 8.0 19.3 0.00 0.00 0.00 57 1014.5
20260509195905 16 48 11.3 24.1 0.00 0.00 0.00 58 1014.5
20260509194905 16 60 8.0 19.3 0.00 0.00 0.00 58 1014.5
20260509194404 16 61 11.3 20.9 0.00 0.00 0.00 58 1014.5
20260509193905 17 49 11.3 20.9 0.00 0.00 0.00 57 1014.4
20260509193404 17 48 9.7 20.9 0.00 0.00 0.00 57 1014.4
20260509192904 17 35 8.0 16.1 0.00 0.00 0.00 58 1014.5
20260509192404 17 53 9.7 19.3 0.00 0.00 0.00 58 1014.5
20260509191904 17 62 8.0 19.3 0.00 0.00 0.00 60 1014.5
20260509191404 17 49 8.0 16.1 0.00 0.00 0.00 60 1014.5
20260509190904 17 66 9.7 19.3 0.00 0.00 0.00 60 1014.2
20260509190404 17 52 4.8 14.5 0.00 0.00 0.00 61 1014.2
20260509185904 17 47 8.0 12.9 0.00 0.00 0.00 60 1014.2
20260509185404 17 50 4.8 11.3 0.00 0.00 0.00 60 1014.2
20260509184904 17 66 6.4 16.1 0.00 0.00 0.00 59 1014.2
20260509184404 17 69 3.2 8.0 0.00 0.00 0.00 59 1014.2
20260509183904 17 64 1.6 4.8 0.00 0.00 0.00 58 1014.2
20260509183404 17 73 4.8 11.3 0.00 0.00 0.00 58 1014.3
20260509182904 17 77 3.2 4.8 0.00 0.00 0.00 57 1014.3
20260509182405 17 79 3.2 11.3 0.00 0.00 0.00 57 1014.3
20260509181904 17 74 3.2 8.0 0.00 0.00 0.00 56 1014.3
20260509181405 17 27 1.6 8.0 0.00 0.00 0.00 56 1014.3
20260509180904 17 74 3.2 11.3 0.00 0.00 0.00 55 1014.3
20260509180404 18 96 3.2 8.0 0.00 0.00 0.00 55 1014.3
20260509175904 18 69 3.2 8.0 0.00 0.00 0.00 54 1014.3
20260509175404 18 101 6.4 11.3 0.00 0.00 0.00 54 1014.3
20260509174404 18 72 6.4 12.9 0.00 0.00 0.00 52 1014.3
20260509173904 18 82 3.2 11.3 0.00 0.00 0.00 55 1014.3
20260509173404 18 90 3.2 9.7 0.00 0.00 0.00 53 1014.3
20260509172904 18 69 1.6 9.7 0.00 0.00 0.00 52 1014.3
20260509172404 18 93 4.8 12.9 0.00 0.00 0.00 50 1014.3
20260509171904 18 85 6.4 12.9 0.00 0.00 0.00 50 1014.3
20260509171404 19 88 6.4 14.5 0.00 0.00 0.00 48 1014.3
20260509170904 19 83 6.4 19.3 0.00 0.00 0.00 49 1014.3
20260509170404 20 97 3.2 12.9 0.00 0.00 0.00 51 1014.3
20260509165904 19 101 6.4 16.1 0.00 0.00 0.00 50 1014.3
20260509165404 19 72 1.6 8.0 0.00 0.00 0.00 50 1014.3
20260509164905 19 81 8.0 14.5 0.00 0.00 0.00 50 1014.3
20260509164404 19 75 4.8 12.9 0.00 0.00 0.00 52 1014.3
20260509163904 19 66 4.8 11.3 0.00 0.00 0.00 53 1014.3
20260509163404 19 106 4.8 11.3 0.00 0.00 0.00 52 1014.4
20260509162404 19 79 4.8 11.3 0.00 0.00 0.00 52 1014.4
20260509161904 19 71 9.7 19.3 0.00 0.00 0.00 51 1014.4
20260509161404 19 58 8.0 19.3 0.00 0.00 0.00 51 1014.4
20260509160404 19 75 4.8 19.3 0.00 0.00 0.00 54 1014.4
20260509155904 19 38 1.6 9.7 0.00 0.00 0.00 53 1014.4
20260509155404 19 87 6.4 22.5 0.00 0.00 0.00 52 1014.4
20260509154905 19 66 6.4 12.9 0.00 0.00 0.00 52 1014.4
20260509154404 19 78 6.4 16.1 0.00 0.00 0.00 50 1014.4
20260509153904 19 80 9.7 16.1 0.00 0.00 0.00 50 1014.5